This is the latest recevied weather packets stored in our database for station/object WA4IKQ. If no packets are shown the sender has not sent any weather packets the latest 10 day(s).
| Time | Temp. | Humidity | Pressure | Rain* | Wind** | Luminosity | Snow |
|---|---|---|---|---|---|---|---|
| 1787491662 | 28.33° C | 81% | 1016.2 hPa | 0 mm | 2.68 m/s, 155° | - | - |
| 1787491570 | 28.33° C | 81% | 1016.2 hPa | 0 mm | 2.68 m/s, 155° | - | - |
| 1787491357 | 28.33° C | 81% | 1016.1 hPa | 0 mm | 1.34 m/s, 204° | - | - |
| 1787491268 | 28.33° C | 81% | 1016.1 hPa | 0 mm | 1.34 m/s, 204° | - | - |
| 1787491037 | 27.78° C | 81% | 1016.1 hPa | 0 mm | 2.24 m/s, 141° | - | - |
| 1787490970 | 27.78° C | 81% | 1016.1 hPa | 0 mm | 2.24 m/s, 141° | - | - |
| 1787490750 | 27.78° C | 81% | 1016.1 hPa | 0 mm | 1.34 m/s, 142° | - | - |
| 1787490670 | 27.78° C | 81% | 1016.1 hPa | 0 mm | 1.34 m/s, 142° | - | - |
| 1787490433 | 27.78° C | 81% | 1016 hPa | 0 mm | 1.79 m/s, 148° | - | - |
| 1787490373 | 27.78° C | 81% | 1016 hPa | 0 mm | 1.79 m/s, 148° | - | - |
| 1787490132 | 27.78° C | 81% | 1016.1 hPa | 0 mm | 3.58 m/s, 150° | - | - |
| 1787490071 | 27.78° C | 81% | 1016.1 hPa | 0 mm | 3.58 m/s, 150° | - | - |
| 1787489810 | 27.78° C | 82% | 1016.1 hPa | 0 mm | 0.45 m/s, 153° | - | - |
| 1787489542 | 27.78° C | 82% | 1016.1 hPa | 0 mm | 0.89 m/s, 170° | - | - |
| 1787489470 | 27.78° C | 82% | 1016.1 hPa | 0 mm | 0.89 m/s, 170° | - | - |
| 1787489233 | 27.78° C | 82% | 1016 hPa | 0 mm | 1.34 m/s, 167° | - | - |
| 1787489170 | 27.78° C | 82% | 1016 hPa | 0 mm | 1.34 m/s, 167° | - | - |
| 1787488981 | 27.78° C | 83% | 1016 hPa | 0 mm | 0.89 m/s, 166° | - | - |
| 1787488870 | 27.78° C | 83% | 1016 hPa | 0 mm | 0.89 m/s, 166° | - | - |
| 1787488654 | 27.22° C | 83% | 1015.9 hPa | 0 mm | 0 m/s | - | - |
| 1787488569 | 27.22° C | 83% | 1015.9 hPa | 0 mm | 0 m/s | - | - |
| 1787488382 | 27.22° C | 83% | 1015.9 hPa | 0 mm | 0.89 m/s, 139° | - | - |
| 1787488272 | 27.22° C | 83% | 1015.9 hPa | 0 mm | 0.89 m/s, 139° | - | - |
| 1787488075 | 27.22° C | 83% | 1015.9 hPa | 0 mm | 1.34 m/s, 179° | - | - |
| 1787487973 | 27.22° C | 83% | 1015.9 hPa | 0 mm | 1.34 m/s, 179° | - | - |
* Rain latest hour (hover to see other rain measurements)
** Current wind speed in m/s (hover to see current wind gust speed)